DW8907 Agen FR current weather conditions

sailwx.info

Wind from 258 at 1 knots gusting 6

Air temperature 17.8° C
Dewpoint 15.0° C

Last reported at 2019-Jun-19 02:00 UTC.
Time now 2019-Jun-19 02:47 UTC

Location: N 44°27' E 000°18'.
View on Google Maps.

See reports from other nearby stations

  
Tides and Currents Weather Stations Pressure Air Temp Water Temp Dewpoint Dewpoint Depression Visibility Wind Speed Wind Dir Waves Ship Positions
date/time (UTC)wind fromknots sea level pressurealtimeterstation pressurevisibilityair tempwater tempwave heightnotes
2019-Jun-19 02:00 258 1 gusting 6 17.8
2019-Jun-19 01:45 301 1 gusting 6 18.9
2019-Jun-19 01:30 253 2 gusting 6 19.4
2019-Jun-19 01:15 290 2 gusting 10 20.0
2019-Jun-19 01:00 320 5 gusting 8 20.0
2019-Jun-19 00:45 302 5 gusting 7 20.6
2019-Jun-19 00:30 285 5 gusting 8 21.1
2019-Jun-19 00:15 325 0 gusting 2 21.7
2019-Jun-19 00:00 195 21.1
2019-Jun-18 23:47 110 22.2
2019-Jun-18 23:32 269 23.3
2019-Jun-18 23:17 207 23.9
2019-Jun-18 23:01 127 1 gusting 6 24.4
2019-Jun-18 22:46 203 24.4
2019-Jun-18 22:31 166 3 gusting 6 24.4
2019-Jun-18 22:16 141 2 gusting 6 24.4
2019-Jun-18 22:02 154 25.0
2019-Jun-18 21:46 097 1 gusting 7 25.6
2019-Jun-18 21:31 175 1 gusting 3 26.1
2019-Jun-18 21:01 101 2 gusting 9 27.2
2019-Jun-18 20:46 100 4 gusting 7 27.2
2019-Jun-18 20:31 112 2 gusting 6 27.2
2019-Jun-18 20:16 100 0 gusting 8 27.2
2019-Jun-18 20:00 135 1 gusting 4 26.7
2019-Jun-18 19:46 162 26.7
2019-Jun-18 19:31 132 27.8
2019-Jun-18 19:15 122 28.3
2019-Jun-18 19:00 164 29.4
2019-Jun-18 18:30 085 30.6
2019-Jun-18 18:15 116 30.6
2019-Jun-18 18:01 154 30.0
2019-Jun-18 17:45 127 29.4
2019-Jun-18 17:30 127 29.4
2019-Jun-18 17:15 127 30.0
2019-Jun-18 17:00 097 30.6
2019-Jun-18 16:45 097 30.6
2019-Jun-18 16:30 104 31.1
2019-Jun-18 16:15 062 1 gusting 4 31.7
2019-Jun-18 16:00 077 31.7
2019-Jun-18 15:45 105 1 gusting 4 31.7
2019-Jun-18 15:30 102 1 gusting 4 32.2
2019-Jun-18 15:15 178 0 gusting 2 32.2
2019-Jun-18 15:00 124 0 gusting 3 31.1
2019-Jun-18 14:45 087 31.1
2019-Jun-18 14:32 139 0 gusting 3 31.1
2019-Jun-18 14:19 089 0 gusting 6 30.6
2019-Jun-18 14:01 097 1 gusting 6 30.6
2019-Jun-18 13:47 129 2 gusting 6 30.6
2019-Jun-18 13:32 218 30.6
2019-Jun-18 13:17 256 30.0
2019-Jun-18 13:02 060 30.0
2019-Jun-18 12:46 224 0 gusting 5 29.4
2019-Jun-18 12:31 116 0 gusting 6 28.3
2019-Jun-18 12:16 195 2 gusting 7 28.3
2019-Jun-18 12:00 183 4 gusting 7 27.8
2019-Jun-18 11:45 135 4 gusting 7 27.2
2019-Jun-18 11:31 096 3 gusting 6 26.7
2019-Jun-18 11:15 118 2 gusting 6 26.7
2019-Jun-18 11:01 186 1 gusting 7 25.6
2019-Jun-18 10:45 147 4 gusting 8 25.0
2019-Jun-18 10:30 154 2 gusting 12 25.0
2019-Jun-18 10:15 145 3 gusting 8 23.9
2019-Jun-18 10:00 150 3 gusting 11 23.3
2019-Jun-18 09:45 166 0 gusting 6 22.8
2019-Jun-18 09:30 145 5 gusting 9 22.8
2019-Jun-18 09:17 139 1 gusting 6 21.7
2019-Jun-18 09:02 151 1 gusting 6 20.6
2019-Jun-18 08:47 182 0 gusting 3 19.4
2019-Jun-18 08:31 082 0 gusting 4 18.9
2019-Jun-18 08:17 171 1 gusting 3 18.9
2019-Jun-18 08:01 064 18.3
2019-Jun-18 07:45 077 18.3
2019-Jun-18 07:31 212 17.8
2019-Jun-18 07:16 213 17.8
2019-Jun-18 07:02 233 17.8
2019-Jun-18 06:46 229 17.8
2019-Jun-18 06:31 252 17.8
2019-Jun-18 06:16 147 0 gusting 6 17.2
2019-Jun-18 06:00 210 0 gusting 5 17.2
2019-Jun-18 05:46 199 17.8
2019-Jun-18 05:31 113 1 gusting 4 17.8
2019-Jun-18 05:15 137 2 gusting 7 17.2
2019-Jun-18 05:01 047 2 gusting 5 17.2
2019-Jun-18 04:46 195 16.7
2019-Jun-18 04:30 056 16.7
2019-Jun-18 04:15 098 16.7
2019-Jun-18 04:00 118 16.7
2019-Jun-18 03:46 118 16.7
2019-Jun-18 03:31 118 16.7
2019-Jun-18 03:15 118 17.2
2019-Jun-18 03:01 118 17.2
2019-Jun-18 02:45 118 17.8
2019-Jun-18 02:30 118 18.3
2019-Jun-18 02:15 118 18.9
2019-Jun-18 02:00 118 19.4
2019-Jun-18 01:45 087 20.0
2019-Jun-18 01:30 087 0 gusting 4 19.4
2019-Jun-18 01:15 127 0 gusting 3 18.3
2019-Jun-18 01:00 312 17.8
2019-Jun-18 00:47 312 17.8
2019-Jun-18 00:31 312 18.3
2019-Jun-18 00:16 312 18.9
2019-Jun-18 00:02 312 20.0
2019-Jun-17 23:46 087 22.2
2019-Jun-17 23:32 082 1 gusting 2 22.2
2019-Jun-17 23:17 087 22.8
2019-Jun-17 23:02 073 0 gusting 4 22.8
2019-Jun-17 22:47 072 0 gusting 3 22.8
2019-Jun-17 22:30 068 0 gusting 3 22.8
2019-Jun-17 22:16 068 1 gusting 3 22.2
2019-Jun-17 22:00 077 0 gusting 1 21.1
2019-Jun-17 21:45 086 20.0
2019-Jun-17 21:30 111 21.1
2019-Jun-17 21:15 111 0 gusting 2 21.7
2019-Jun-17 21:01 118 0 gusting 2 21.1
2019-Jun-17 20:45 111 1 gusting 2 21.7
2019-Jun-17 20:31 106 1 gusting 3 21.7
2019-Jun-17 20:15 111 1 gusting 3 21.7
2019-Jun-17 20:00 114 0 gusting 2 21.7
2019-Jun-17 19:45 114 0 gusting 2 22.8
2019-Jun-17 19:30 102 0 gusting 2 23.9
2019-Jun-17 19:15 100 0 gusting 2 24.4
2019-Jun-17 19:01 106 0 gusting 2 25.6
2019-Jun-17 18:45 149 26.1
2019-Jun-17 18:30 149 28.3